STARLINK-32520, 62021

Orbit data source: Space-Track

STARLINK-32520, 62021 is a payload satellite owned by SpaceX/Seattle (US) in LEO that was launched on Mon, 18 Nov 2024 UTC via an FALCON 9 launch vehicle from the Air Force Western Test Range (AFWTR). Payload-class satellites include a variety of spacecraft equipped with specific instruments for various scientific and technological missions. These include communications satellites like Starlink; space stations such as the ISS; scientific satellites like the Hubble; Earth observation satellites from companies like Planet Labs, Umbra, and HawkEye 360; GPS; miniature CubeSats for education and research; and military/defense satellites.

Loading next visibility...
Identifier
62021, 2024-213P
Orbit
LEO
Country
Flag of USUS
Related business
Manufacturer
SpaceX/Seattle
Mission
Operational Commercial Communications
Bus & Motor
STARLINK V2M, Unknown motor
Mass
730 kg wet, ~700 kg dry
Launch date (UTC)
2024-11-18 (9 months ago)
Launch vehicle
FALCON 9
Launch site
Air Force Western Test Range (AFWTR)
Object type
Payload
Rocket body
Debris
Shape & HBR
Box + 2 Pan, 14.5 m
Radar Cross Section
36.964 m², Large (>1 m²)

Expand to show TLE details & history
Last TLE update: 1 day ago

TLE from 1 day ago
0 STARLINK-32520
1 62021U 24213P   25241.55503334  .00031680  00000-0  10776-2 0  9996
2 62021  53.1606 340.8908 0001199  95.2913 264.8225 15.30186847 43734
Epoch: 2025-08-29T13:19Z
TLE epoch observation values (Epoch: 2025-08-29T13:19:14.88Z)
Latitude
0.00001°
Longitude
163.0768°
Altitude
476.228 km
Speed
7.629 km/s
True Right ascension
22h 43m 33s
True Declination
0° 00' 00"
Sunlit
Object was in full shadow at epoch
Visualization orbit readout
Latitude
Unknown
Longitude
Unknown
Altitude
Unknown
Speed
Unknown
Apparent Right ascension
Unknown
Apparent Declination
Unknown
Sunlit
N/A
Visualization observer readout
Local Sidereal Time
04:24:51
Azimuth
Unknown
Elevation
Unknown
Doppler factor
Unknown
Orbital elements
Apogee altitude
476.332 km
Perigee altitude
474.689 km
Semi-major axis
6,853.648 km
Eccentricity
0.00012
Inclination
53.1606°
RAAN
340.8908°
Arg. of periapsis
95.2913°
True anomaly
264.80882°
Mean anomaly
264.8225°
Eccentric anomaly
264.81566°
Mean motion
3.82526 °/min
Orbital period
94.11 mins
BSTAR
0.0010776
Loading maneuver chart data...
Computing Atmospheric mass density...
Loading historical data...
Loading historical data...
Loading historical data...
Loading historical data...
Loading historical data...
Loading historical data...
Loading historical data...

Documentation

Showing up to 5 results
|